weather.gov     
National Weather Service

Terminal Aerodrome Forecast
NWS Homepage
This page is being discontinued on March 12, 2014.
The same data is available at this site. Please update your bookmarks.
Thank you, and we apologize for the inconvenience.
Please send an email to SR-SRH.Webmaster@noaa.gov with any concerns.


Current Version
Previous Version:    01  02  03  04  05  06  07  08  09  10  11  12  13  14  15  16  17  18  19  20  21  22  23  
[Printable]
256
FTUS44 KLIX 221100 RRA
TAFBTR
TAF
KBTR 221142Z 2212/2312 10008KT P6SM SCT040 BKN100
     FM221600 12012G22KT P6SM BKN050
     FM222300 11009G16KT P6SM VCSH OVC040
     FM230500 11011G18KT P6SM VCTS BKN020CB OVC035=


U.S. Dept. of Commerce
NOAA National Weather Service
1325 East West Highway
Silver Spring, MD 20910
E-mail: w-nws.webmaster@noaa.gov
Page last modified: May 16, 2007
NATIONAL WEATHER SERVICE: for Safety, for Work, for Fun - FOR LIFE